Location: Bismarck
(46.7731°N, 100.8200°W)
Time: 22:26:41
(UTC-06:00)

ISS - Pass Details

Date: 27 November 2017
Orbit: 403 x 407 km, 51.6° (Epoch: 12 December)

Event Time Altitude Azimuth Distance (km) Brightness Sun altitude
Rises 21:24:04 0° 271° (W) 2,327 - -44.6°
Reaches altitude 10° 21:26:15 10° 280° (W) 1,467 - -44.9°
Maximum altitude 21:29:21 38° 350° (N) 644 - -45.4°
Drops below altitude 10° 21:32:27 10° 60° (ENE) 1,467 - -45.9°
Sets 21:34:37 0° 69° (ENE) 2,327 - -46.3°
